Location: Unspecified
(0.0000°N, 0.0000°E)
Time: 18:09:14
(UTC+00:00)

Courier 1B Rocket - Pass Details

Date: 04 October 2020
Orbit: 921 x 1202 km, 28.2° (Epoch: 27 October)

Event Time Altitude Azimuth Distance (km) Brightness Sun altitude
Rises 22:55:43 0° 230° (SW) 4,095 - -76.0°
Reaches altitude 10° 22:58:43 10° 225° (SW) 3,120 - -76.7°
Maximum altitude 23:06:12 50° 151° (SSE) 1,442 - -78.4°
Drops below altitude 10° 23:13:20 10° 77° (ENE) 2,975 - -80.0°
Sets 23:16:07 0° 72° (ENE) 3,891 - -80.6°
